This is the latest recevied weather packets stored in our database for station/object KJ5EHN. If no packets are shown the sender has not sent any weather packets the latest 1 day(s).
| Time | Temp. | Humidity | Pressure | Rain* | Wind** | Luminosity | Snow |
|---|---|---|---|---|---|---|---|
| 1778026897 | 22.78° C | 74% | 1005.4 hPa | 0 mm | 0.45 m/s, 168° | - | - |
| 1778026593 | 22.78° C | 72% | 1005.5 hPa | 0 mm | 1.79 m/s, 350° | - | - |
| 1778026291 | 23.33° C | 71% | 1005.3 hPa | 0 mm | 0.45 m/s, 307° | - | - |
| 1778025988 | 23.33° C | 71% | 1005.4 hPa | 0 mm | 0.45 m/s, 353° | - | - |
| 1778025685 | 23.33° C | 71% | 1005.6 hPa | 0 mm | 0.45 m/s, 239° | - | - |
| 1778025383 | 23.89° C | 70% | 1005.7 hPa | 0 mm | 1.79 m/s, 4° | - | - |
| 1778025080 | 23.89° C | 69% | 1005.4 hPa | 0 mm | 0.89 m/s, 289° | - | - |
| 1778024777 | 24.44° C | 69% | 1004.9 hPa | 0 mm | 0.45 m/s, 312° | - | - |
| 1778024473 | 24.44° C | 69% | 1004.9 hPa | 0 mm | 0.89 m/s, 144° | - | - |
| 1778024171 | 24.44° C | 69% | 1005.1 hPa | 0 mm | 0.45 m/s, 261° | - | - |
| 1778023868 | 24.44° C | 68% | 1005.3 hPa | 0 mm | 2.24 m/s, 269° | - | - |
| 1778023566 | 24.44° C | 67% | 1005.5 hPa | 0 mm | 2.24 m/s, 256° | - | - |
| 1778023263 | 25° C | 67% | 1005.3 hPa | 0 mm | 0.89 m/s, 199° | - | - |
| 1778022960 | 25.56° C | 66% | 1005 hPa | 0 mm | 0.89 m/s, 310° | - | - |
| 1778022659 | 26.11° C | 65% | 1005 hPa | 0 mm | 0.89 m/s, 71° | - | - |
| 1778022356 | 26.67° C | 62% | 1004.9 hPa | 0 mm | 1.79 m/s, 235° | - | - |
| 1778022052 | 26.67° C | 61% | 1004.5 hPa | 0 mm | 1.34 m/s, 306° | - | - |
| 1778021749 | 27.22° C | 60% | 1004.6 hPa | 0 mm | 1.34 m/s, 292° | - | - |
| 1778021445 | 27.22° C | 59% | 1004.8 hPa | 0 mm | 1.34 m/s, 337° | - | - |
| 1778021142 | 27.78° C | 58% | 1004.6 hPa | 0 mm | 0.89 m/s, 198° | - | - |
| 1778020840 | 28.89° C | 55% | 1004.4 hPa | 0 mm | 2.68 m/s, 193° | - | - |
| 1778020537 | 28.89° C | 53% | 1004.4 hPa | 0 mm | 0.89 m/s, 58° | - | - |
| 1778020233 | 29.44° C | 52% | 1004.4 hPa | 0 mm | 0.89 m/s, 128° | - | - |
| 1778019929 | 29.44° C | 51% | 1004.1 hPa | 0 mm | 1.79 m/s, 354° | - | - |
| 1778019625 | 30° C | 50% | 1004 hPa | 0 mm | 0.45 m/s, 341° | - | - |
* Rain latest hour (hover to see other rain measurements)
** Current wind speed in m/s (hover to see current wind gust speed)